Jenks, OK

4:13 PM CDT on July 24, 2016 (GMT -0500)
Jones Jr.

Weather History for KRVS - November, 2012

Change the Weather History Date:

Sunday, November 18, 2012

  Actual Average (KTUL) Record (KTUL)
Temperature  
Mean Temperature 50 °F 49 °F  
Max Temperature 64 °F 60 °F 82 °F (1930)
Min Temperature 37 °F 39 °F 14 °F (2014)
Degree Days  
Heating Degree Days 14 16  
Month to date heating degree days 223  
Since 1 July heating degree days 409  
Moisture  
Dew Point 32 °F    
Average Humidity 50    
Maximum Humidity 76    
Minimum Humidity 30    
Precipitation  
Precipitation 0.00 in 0.08 in 1.26 in (1964)
Month to date precipitation 1.83  
Year to date precipitation 37.50  
Sea Level Pressure  
Sea Level Pressure 30.26 in    
Wind  
Wind Speed 5 mph (South)    
Max Wind Speed 18 mph    
Max Gust Speed 24 mph    
Visibility 10 miles    
Events      
T = Trace of Precipitation, MM = Missing Value Source: NWS Daily Summary

Daily Weather History Graph

Daily Weather History Graph

Search for Another Location

Airport or City:

Trip Planner

Search our weather history database for the weather conditions in past years. The results will help you decide how hot, cold, wet, or windy it might be!

Date:

Astronomy

Nov. 18, 2012 Rise Set
Actual Time 7:04 AM CST 5:14 PM CST
Civil Twilight 6:36 AM CST 5:41 PM CST
Nautical Twilight 6:05 AM CST 6:12 PM CST
Astronomical Twilight 5:34 AM CST 6:43 PM CST
Moon 11:33 AM CST (11/18) 10:32 PM CST (11/18)
Length of Visible Light 11h 05m
Length of Day
10h 10m
Waxing Crescent, 30% of the Moon is Illuminated
Nov 18
Waxing Crescent
Nov 20
First Quarter
Nov 28
Full
Dec 6
Last Quarter
Dec 13
New

Hourly Weather History & Observations

Time (CST) Temp. Windchill Dew Point Humidity Pressure Visibility Wind Dir Wind Speed Gust Speed Precip Events Conditions
12:53 AM 37.0 °F - 30.0 °F 76% 30.32 in 10.0 mi Calm Calm - N/A   Clear
1:53 AM 37.0 °F - 30.0 °F 76% 30.32 in 10.0 mi Calm Calm - N/A   Clear
2:53 AM 39.9 °F - 30.0 °F 68% 30.31 in 10.0 mi Calm Calm - N/A   Clear
3:53 AM 39.0 °F - 30.9 °F 73% 30.30 in 10.0 mi Calm Calm - N/A   Clear
4:53 AM 37.9 °F 35.5 °F 30.9 °F 76% 30.29 in 10.0 mi SSW 3.5 mph - N/A   Clear
5:53 AM 39.9 °F 37.8 °F 30.0 °F 68% 30.29 in 10.0 mi SSW 3.5 mph - N/A   Clear
6:53 AM 43.0 °F 39.5 °F 30.9 °F 62% 30.30 in 10.0 mi South 5.8 mph - N/A   Clear
7:53 AM 44.1 °F 41.5 °F 32.0 °F 63% 30.31 in 10.0 mi SSW 4.6 mph - N/A   Partly Cloudy
8:53 AM 46.9 °F - 32.0 °F 56% 30.32 in 10.0 mi South 8.1 mph - N/A   Clear
9:53 AM 51.1 °F - 33.1 °F 50% 30.32 in 10.0 mi South 6.9 mph - N/A   Clear
10:53 AM 54.0 °F - 33.1 °F 45% 30.31 in 10.0 mi South 11.5 mph - N/A   Clear
11:53 AM 60.1 °F - 33.1 °F 36% 30.27 in 10.0 mi South 10.4 mph - N/A   Clear
12:53 PM 64.0 °F - 32.0 °F 30% 30.23 in 10.0 mi South 15.0 mph 21.9 mph N/A   Clear
1:53 PM 63.0 °F - 30.9 °F 30% 30.21 in 10.0 mi South 18.4 mph 24.2 mph N/A   Clear
2:53 PM 64.0 °F - 32.0 °F 30% 30.19 in 10.0 mi South 15.0 mph 20.7 mph N/A   Clear
3:53 PM 63.0 °F - 32.0 °F 31% 30.19 in 10.0 mi South 11.5 mph - N/A   Partly Cloudy
4:53 PM 61.0 °F - 33.1 °F 35% 30.19 in 10.0 mi South 12.7 mph - N/A   Mostly Cloudy
5:53 PM 60.1 °F - 34.0 °F 38% 30.18 in 10.0 mi SSE 10.4 mph 17.3 mph N/A   Clear
6:53 PM 60.1 °F - 34.0 °F 38% 30.19 in 10.0 mi SSE 9.2 mph 19.6 mph N/A   Clear
7:53 PM 59.0 °F - 34.0 °F 39% 30.20 in 10.0 mi South 8.1 mph - N/A   Clear
8:53 PM 57.9 °F - 34.0 °F 41% 30.21 in 10.0 mi South 8.1 mph - N/A   Clear
9:53 PM 55.9 °F - 34.0 °F 44% 30.21 in 10.0 mi South 8.1 mph - N/A   Clear
11:53 PM 55.9 °F - 35.1 °F 45% 30.22 in 10.0 mi South 9.2 mph - N/A   Overcast